Location: Casteau
(50.5142°N, 4.0161°E)
Time: 06:53:10
(UTC+00:00)

Transit 2A - Pass Details

Date: 30 July 2021
Orbit: 594 x 964 km, 66.7° (Epoch: 24 September)

Event Time Altitude Azimuth Distance (km) Brightness Sun altitude
Rises 06:21:13 0° 199° (SSW) 2,832 8.7 19.0°
Reaches altitude 10° 06:23:26 10° 193° (SSW) 1,951 8.0 19.3°
Maximum altitude 06:27:38 49° 119° (ESE) 817 7.1 20.0°
Drops below altitude 10° 06:32:10 10° 45° (NE) 2,101 9.2 20.7°
Sets 06:34:38 0° 40° (NE) 3,074 9.8 21.1°
